Flag for United Kingdom Weather past 2 weeks in Glasgow, Scotland, United Kingdom

Now
46 °F

Light rain. Partly cloudy.


Feels Like: 39 °F
Forecast: N/A
Wind: 17 mph from Southwest

Location: Glasgow Airport

Current Time: Mar 5, 2015 at 8:26:03 PM

Latest Report: Mar 5, 2015 at 7:50 PM


Visibility: 5 mi

Pressure: 30.33 "Hg

Humidity: 93%

Dew point: 45 °F

Location of GlasgowLocation

Historic Weather in Glasgow — Graph

°F

Glasgow temperature yesterday

Maximum temperature yesterday: 48 °F (at 1:20 PM)
Minimum temperature yesterday: 36 °F (at 12:50 AM)
Average temperature yesterday: 42 °F

Past Weeks' High & Low Weather Summary

 TemperatureHumidityPressure
High52 °F (Feb 25, 10:50 PM)100% (Feb 21, 8:50 PM)30.48 "Hg (Feb 21, 8:50 PM)
Low28 °F (Feb 21, 10:20 PM)61% (Feb 24, 3:20 PM)28.62 "Hg (Feb 23, 4:20 PM)
Average40 °F85%29.56 "Hg
* Reported Feb 18 7:20 PM — Mar 5 7:20 PM, Glasgow, Weather by CustomWeather, © 2015

Note: Actual official high and low records may vary slightly from our data, if they occured in-between our weather recording intervals... More about our weather records

Advertising

Glasgow weather history for previous 24 hours

 ConditionsComfort  
Time TempWeatherWind HumidityBarometerVisibility
7:20 PM
Thu, Mar 5
46 °FPartly cloudy.17 mph93%30.33 "Hg4 mi
6:50 PM48 °FOvercast.16 mph82%30.33 "Hg4 mi
6:20 PM48 °FPassing clouds.21 mph82%30.30 "HgN/A
5:50 PM48 °FPartly sunny.20 mph82%30.33 "HgN/A
5:20 PM48 °FOvercast.18 mph82%30.33 "HgN/A
4:50 PM48 °FOvercast.16 mph82%30.33 "HgN/A
4:20 PM48 °FOvercast.15 mph76%30.33 "HgN/A
3:50 PM48 °FOvercast.18 mph76%30.33 "HgN/A
3:20 PM48 °FOvercast.25 mph76%30.33 "HgN/A
2:50 PM48 °FScattered clouds.33 mph76%N/AN/A
2:20 PM48 °FPassing clouds.32 mph76%30.30 "HgN/A
1:50 PM48 °FPartly sunny.29 mph82%30.33 "HgN/A
1:20 PM48 °FMostly cloudy.24 mph76%30.33 "HgN/A
12:50 PM46 °FOvercast.20 mph87%30.36 "HgN/A
12:20 PM46 °FOvercast.21 mph87%30.36 "HgN/A
11:50 AM46 °FPartly sunny.21 mph87%30.39 "HgN/A
11:20 AM46 °FLight rain. Overcast.20 mph87%30.39 "Hg4 mi
10:50 AM46 °FLight rain. Overcast.18 mph87%30.39 "HgN/A
10:20 AM45 °FLight rain. Overcast.23 mph93%30.39 "Hg4 mi
9:50 AM45 °FOvercast.18 mph87%30.42 "HgN/A
9:20 AM46 °FMostly cloudy.22 mph82%30.39 "HgN/A
8:50 AM45 °FMostly cloudy.16 mph87%30.39 "HgN/A
8:20 AM45 °FOvercast.14 mph87%30.42 "HgN/A
7:50 AM45 °FOvercast.14 mph87%30.42 "Hg6 mi
7:20 AM45 °FOvercast.18 mph87%30.42 "HgN/A
6:50 AM45 °FOvercast.17 mph87%30.42 "HgN/A
6:20 AM45 °FPassing clouds.15 mph87%30.42 "HgN/A
5:50 AM45 °FMostly cloudy.18 mph87%30.42 "HgN/A
5:20 AM45 °FOvercast.22 mph87%30.42 "HgN/A
4:50 AM45 °FOvercast.21 mph81%30.42 "HgN/A
4:20 AM45 °FOvercast.21 mph87%30.42 "HgN/A
3:20 AM45 °FOvercast.22 mph81%30.42 "HgN/A
2:50 AM45 °FPassing clouds.22 mph87%30.42 "HgN/A
1:50 AM45 °FOvercast.15 mph87%30.45 "HgN/A
1:20 AM45 °FMostly cloudy.14 mph87%30.45 "HgN/A
12:50 AM45 °FPassing clouds.13 mph81%30.45 "HgN/A
12:20 AM45 °FOvercast.14 mph81%30.45 "HgN/A
11:50 PM
Wed, Mar 4
45 °FPassing clouds.16 mph81%30.45 "HgN/A
11:20 PM45 °FOvercast.12 mph81%30.45 "HgN/A
10:50 PM43 °FPassing clouds.13 mph87%30.45 "HgN/A
10:20 PM43 °FPassing clouds.12 mph81%30.48 "HgN/A
9:20 PM43 °FPassing clouds.16 mph81%30.48 "HgN/A
8:50 PM45 °FOvercast.10 mph76%30.48 "HgN/A
8:20 PM43 °FPassing clouds.7 mph76%30.48 "HgN/A
Weather by CustomWeather, © 2015

See weather overviewHow to use our weather pages